Middletown, OH

4:35 PM EDT on May 25, 2017 (GMT -0400)
Hook Field Municipal

Weather History for KMWO - February, 2013

Change the Weather History Date:

Monday, February 11, 2013

  Actual Average (KFFO) Record (KFFO)
Temperature  
Mean Temperature 44 °F -  
Max Temperature 52 °F 39 °F 73 °F (1999)
Min Temperature 36 °F 22 °F -7 °F (2014)
Degree Days  
Heating Degree Days 20    
Moisture  
Dew Point 38 °F    
Average Humidity 74    
Maximum Humidity 100    
Minimum Humidity 53    
Precipitation  
Precipitation 0.00 in - - ()
Sea Level Pressure  
Sea Level Pressure 29.89 in    
Wind  
Wind Speed 14 mph (WSW)    
Max Wind Speed 32 mph    
Max Gust Speed 41 mph    
Visibility 10 miles    
Events      
Averages and records for this station are not official NWS values.
T = Trace of Precipitation, MM = Missing Value Source: NWS Daily Summary

Daily Weather History Graph

Daily Weather History Graph

Search for Another Location

Airport or City:

Trip Planner

Search our weather history database for the weather conditions in past years. The results will help you decide how hot, cold, wet, or windy it might be!

Date:

Astronomy

Feb. 11, 2013 Rise Set
Actual Time 7:34 AM EST 6:09 PM EST
Civil Twilight 7:06 AM EST 6:37 PM EST
Nautical Twilight 6:34 AM EST 7:09 PM EST
Astronomical Twilight 6:03 AM EST 7:40 PM EST
Moon 7:58 AM EST (2/11) 8:05 PM EST (2/11)
Length of Visible Light 11h 31m
Length of Day
10h 35m
Waxing Crescent, 3% of the Moon is Illuminated
Feb 11
Waxing Crescent
Feb 17
First Quarter
Feb 25
Full
Mar 4
Last Quarter
Mar 11
New

Hourly Weather History & Observations

Time (EST) Temp. Windchill Dew Point Humidity Pressure Visibility Wind Dir Wind Speed Gust Speed Precip Events Conditions
12:15 AM 47.7 °F - 47.7 °F 100% 29.81 in 3.0 mi SSW 10.4 mph - N/A   Overcast
12:35 AM 47.7 °F - 47.7 °F 100% 29.81 in 7.0 mi SSW 9.2 mph - N/A   Overcast
12:55 AM 47.7 °F - 47.7 °F 100% 29.81 in 10.0 mi SSW 8.1 mph - N/A   Overcast
1:15 AM 47.7 °F - 47.7 °F 100% 29.80 in 10.0 mi SSW 8.1 mph - N/A   Overcast
1:35 AM 47.7 °F - 47.7 °F 100% 29.79 in 10.0 mi SSW 11.5 mph - N/A   Overcast
1:55 AM 48.2 °F - 48.2 °F 100% 29.79 in 10.0 mi SSW 9.2 mph - N/A   Overcast
2:15 AM 50.2 °F - 50.2 °F 100% 29.79 in 10.0 mi SSW 9.2 mph - N/A   Overcast
2:35 AM 50.2 °F - 50.2 °F 100% 29.79 in 10.0 mi SW 8.1 mph - N/A   Overcast
2:55 AM 50.2 °F - 50.2 °F 100% 29.78 in 10.0 mi SW 5.8 mph - N/A   Overcast
3:15 AM 50.2 °F - 50.2 °F 100% 29.78 in 10.0 mi SSW 5.8 mph - N/A   Overcast
3:35 AM 52.7 °F - 52.7 °F 100% 29.78 in 10.0 mi SW 10.4 mph - N/A   Overcast
3:55 AM 52.7 °F - 52.0 °F 97% 29.77 in 10.0 mi SW 10.4 mph - N/A   Overcast
4:15 AM 52.7 °F - 52.0 °F 97% 29.77 in 10.0 mi SW 10.4 mph 17.3 mph N/A   Overcast
4:35 AM 52.7 °F - 51.8 °F 97% 29.77 in 10.0 mi SW 11.5 mph - N/A   Overcast
4:55 AM 52.7 °F - 51.8 °F 97% 29.77 in 10.0 mi SW 12.7 mph - N/A   Mostly Cloudy
5:15 AM 50.9 °F - 50.2 °F 97% 29.77 in 10.0 mi SW 11.5 mph - N/A   Clear
5:35 AM 52.2 °F - 50.9 °F 95% 29.77 in 10.0 mi SW 12.7 mph - N/A   Clear
5:55 AM 50.2 °F - 49.1 °F 96% 29.77 in 10.0 mi SW 13.8 mph - N/A   Clear
6:15 AM 52.7 °F - 51.1 °F 94% 29.77 in 10.0 mi SW 15.0 mph 18.4 mph N/A   Scattered Clouds
6:35 AM 52.7 °F - 50.9 °F 94% 29.78 in 10.0 mi SW 16.1 mph 21.9 mph N/A   Scattered Clouds
6:55 AM 50.2 °F - 48.2 °F 93% 29.78 in 10.0 mi SW 17.3 mph 21.9 mph N/A   Scattered Clouds
7:15 AM 50.4 °F - 46.9 °F 88% 29.79 in 10.0 mi SW 16.1 mph 26.5 mph N/A   Scattered Clouds
7:35 AM 50.2 °F - 43.9 °F 79% 29.79 in 10.0 mi SW 19.6 mph 28.8 mph N/A   Scattered Clouds
7:55 AM 49.1 °F - 41.2 °F 74% 29.80 in 10.0 mi WSW 18.4 mph 25.3 mph N/A   Clear
8:15 AM 47.8 °F - 36.3 °F 64% 29.82 in 10.0 mi WSW 24.2 mph 38.0 mph N/A   Clear
8:35 AM 47.8 °F - 34.9 °F 61% 29.83 in 10.0 mi WSW 26.5 mph 40.3 mph N/A   Clear
8:55 AM 47.7 °F - 34.7 °F 61% 29.83 in 10.0 mi WSW 25.3 mph 36.8 mph N/A   Clear
9:15 AM 48.0 °F - 35.6 °F 62% 29.85 in 10.0 mi WSW 32.2 mph 36.8 mph N/A   Clear
9:35 AM 47.7 °F - 33.1 °F 57% 29.85 in 10.0 mi SW 27.6 mph 34.5 mph N/A   Scattered Clouds
9:55 AM 47.7 °F - 33.8 °F 59% 29.86 in 10.0 mi WSW 25.3 mph 34.5 mph N/A   Clear
10:15 AM 47.7 °F - 34.5 °F 60% 29.86 in 10.0 mi SW 24.2 mph 31.1 mph N/A   Scattered Clouds
10:35 AM 47.7 °F - 34.9 °F 61% 29.87 in 10.0 mi WSW 19.6 mph 28.8 mph N/A   Scattered Clouds
10:55 AM 47.7 °F - 35.1 °F 62% 29.88 in 10.0 mi SW 24.2 mph 33.4 mph N/A   Overcast
11:15 AM 47.7 °F - 35.8 °F 63% 29.90 in 10.0 mi WSW 23.0 mph 36.8 mph N/A   Overcast
11:35 AM 47.7 °F - 34.9 °F 61% 29.90 in 10.0 mi WSW 23.0 mph 33.4 mph N/A   Mostly Cloudy
11:55 AM 47.7 °F - 33.4 °F 58% 29.92 in 10.0 mi WSW 27.6 mph 41.4 mph N/A   Mostly Cloudy
12:15 PM 43.2 °F 33.6 °F 30.6 °F 61% 29.92 in 10.0 mi WSW 25.3 mph 40.3 mph N/A   Mostly Cloudy
12:35 PM 47.7 °F - 32.9 °F 57% 29.92 in 10.0 mi WSW 20.7 mph 35.7 mph N/A   Scattered Clouds
12:55 PM 47.7 °F - 32.5 °F 56% 29.92 in 10.0 mi West 21.9 mph 34.5 mph N/A   Mostly Cloudy
1:15 PM 46.9 °F - 32.2 °F 57% 29.92 in 10.0 mi West 24.2 mph 31.1 mph N/A   Mostly Cloudy
1:35 PM 47.1 °F - 32.5 °F 57% 29.92 in 10.0 mi West 23.0 mph 34.5 mph N/A   Scattered Clouds
1:55 PM 47.7 °F - 32.0 °F 55% 29.92 in 10.0 mi West 19.6 mph 26.5 mph N/A   Scattered Clouds
2:15 PM 47.7 °F - 32.5 °F 56% 29.91 in 10.0 mi West 18.4 mph 29.9 mph N/A   Mostly Cloudy
2:35 PM 47.7 °F - 32.0 °F 55% 29.91 in 10.0 mi WSW 24.2 mph 32.2 mph N/A   Mostly Cloudy
2:55 PM 47.8 °F - 31.5 °F 53% 29.91 in 10.0 mi WSW 27.6 mph 39.1 mph N/A   Mostly Cloudy
3:15 PM 47.7 °F - 32.0 °F 55% 29.92 in 10.0 mi WSW 23.0 mph 29.9 mph N/A   Mostly Cloudy
3:35 PM 47.7 °F - 31.3 °F 53% 29.92 in 10.0 mi West 24.2 mph 35.7 mph N/A   Mostly Cloudy
3:55 PM 47.7 °F - 32.0 °F 55% 29.93 in 10.0 mi West 17.3 mph 31.1 mph N/A   Mostly Cloudy
4:15 PM 47.7 °F - 31.5 °F 53% 29.93 in 10.0 mi WSW 21.9 mph 34.5 mph N/A   Mostly Cloudy
4:35 PM 47.7 °F - 32.4 °F 55% 29.94 in 10.0 mi WSW 20.7 mph 27.6 mph N/A   Overcast
4:55 PM 47.7 °F - 32.2 °F 55% 29.95 in 10.0 mi West 21.9 mph 28.8 mph N/A   Overcast
5:55 PM 45.1 °F 37.3 °F 31.3 °F 58% 29.97 in 10.0 mi West 19.6 mph 32.2 mph N/A   Mostly Cloudy
6:15 PM 41.5 °F 34.2 °F 30.2 °F 64% 29.98 in 10.0 mi West 13.8 mph 17.3 mph N/A   Scattered Clouds
6:35 PM 40.8 °F 33.7 °F 30.4 °F 66% 29.99 in 10.0 mi West 12.7 mph 17.3 mph N/A   Mostly Cloudy
6:55 PM 40.3 °F 33.0 °F 30.7 °F 69% 29.99 in 10.0 mi West 12.7 mph - N/A   Mostly Cloudy
7:15 PM 40.1 °F 34.7 °F 30.9 °F 70% 30.00 in 10.0 mi West 8.1 mph - N/A   Mostly Cloudy
7:35 PM 38.8 °F 34.6 °F 30.9 °F 73% 30.00 in 10.0 mi West 5.8 mph - N/A   Mostly Cloudy
7:55 PM 38.8 °F 33.2 °F 30.9 °F 73% 30.01 in 10.0 mi WSW 8.1 mph - N/A   Mostly Cloudy
8:15 PM 38.8 °F 33.2 °F 30.6 °F 72% 30.01 in 10.0 mi WSW 8.1 mph - N/A   Scattered Clouds
8:35 PM 40.1 °F 34.7 °F 30.9 °F 70% 30.02 in 10.0 mi West 8.1 mph - N/A   Mostly Cloudy
8:55 PM 40.1 °F 33.6 °F 31.1 °F 70% 30.02 in 10.0 mi West 10.4 mph - N/A   Overcast
9:15 PM 40.3 °F 32.2 °F 30.9 °F 69% 30.03 in 10.0 mi West 15.0 mph 19.6 mph N/A   Overcast
9:35 PM 40.1 °F 33.2 °F 30.2 °F 68% 30.03 in 10.0 mi West 11.5 mph 24.2 mph N/A   Mostly Cloudy
9:55 PM 39.4 °F 33.2 °F 30.4 °F 70% 30.03 in 10.0 mi WSW 9.2 mph 19.6 mph N/A   Scattered Clouds
10:15 PM 37.8 °F 30.2 °F 30.2 °F 74% 30.04 in 10.0 mi West 11.5 mph - N/A   Clear
10:35 PM 37.8 °F 31.3 °F 30.2 °F 74% 30.04 in 10.0 mi West 9.2 mph 16.1 mph N/A   Clear
10:55 PM 37.6 °F 32.3 °F 30.2 °F 75% 30.04 in 10.0 mi WSW 6.9 mph - N/A   Scattered Clouds
11:15 PM 37.6 °F 31.6 °F 31.1 °F 77% 30.05 in 10.0 mi WSW 8.1 mph - N/A   Clear
11:35 PM 37.2 °F 30.6 °F 30.9 °F 78% 30.05 in 10.0 mi WSW 9.2 mph - N/A   Clear
11:55 PM 36.3 °F 29.5 °F 30.6 °F 80% 30.05 in 10.0 mi WSW 9.2 mph - N/A   Clear